Simultaneous Nadir Overpasses (SNOs) Predictions

Prediction of SNOs between GOES-16 and NOAA-19 Satellite Orbit:

Table of predicted SNOs for the next 14.0 days since TLE Epoch: 4/16/2022
Index Date Time (GOES-16) GOES-16 Lat,Lon NOAA-19 Lat,Lon Distance(km) Time Diff (sec)
1 04/17/2022 12:57:55 0.05, -75.24 0.97, -79.25 458.17 80
2 04/18/2022 12:46:06 0.05, -75.24 0.29, -76.38 128.74 80
3 04/19/2022 12:31:37 0.05, -75.25 -0.34, -73.48 200.75 80
4 04/22/2022 00:55:00 -0.04, -75.24 -0.75, -78.40 360.43 80
5 04/23/2022 00:43:11 -0.04, -75.25 -0.10, -75.52 30.55 80
6 04/24/2022 00:28:41 -0.04, -75.26 0.56, -72.63 299.57 80
7 04/26/2022 12:51:59 0.04, -75.31 0.53, -77.52 251.87 80
8 04/27/2022 12:37:30 0.04, -75.33 -0.11, -74.63 79.08 80
9 04/28/2022 12:25:41 0.04, -75.35 -0.82, -71.76 410.21 80
